Location: gie�en
(50.5804°N, 8.6692°E)
Time: 10:11:35
(UTC+02:00)

ISS - Visible Passes

Search period start: 18 October 2021 00:00
Search period end: 28 October 2021 00:00
Orbit: 417 x 423 km, 51.6° (Epoch: 17 October)

Date Brightness Start Highest point End Pass type
(mag) Time Alt. Az. Time Alt. Az. Time Alt. Az.
22 Oct -1.1 07:02:17 10° S 07:04:44 19° SE 07:07:11 10° E visible
23 Oct -0.8 06:16:04 10° SSE 06:17:41 13° SE 06:19:18 10° ESE visible
24 Oct -2.4 07:03:34 10° SW 07:06:44 38° SSE 07:09:53 10° E visible
25 Oct -1.9 06:17:38 16° SSW 06:19:33 27° SSE 06:22:28 10° E visible
26 Oct -1.4 05:32:38 19° SE 05:32:38 19° SE 05:34:54 10° E visible
26 Oct -3.5 07:05:38 11° WSW 07:08:50 70° SSE 07:12:12 10° ENE visible
27 Oct -3.2 06:20:30 36° SSW 06:21:33 53° SSE 06:24:51 10° ENE visible
